Date_and_time,latitude,longitude,wind_speed,RelWindDirFrom,WindDirFrom,air_pressure,air_temperature,relative_humidity,Temp,platform_speed_wrt_ground,air_pressure_at_mean_sea_level,platform_orientation
2019-01-24 00:00,50.630445,-96.9807616666667,14.3,22.7,327,984.01,-12.4,88,0.57,0.0,1012.88,167.4
2019-01-24 00:00,50.630445,-96.9807616666667,13.8,13.9,326,984.26,-12.4,89,0.55,0.0,1013.15,360.0
2019-01-24 00:10,50.630445,-96.9807616666667,13.7,21.9,322,984.21,-12.4,89,0.57,0.0,1013.13,360.0
2019-01-24 00:20,50.630445,-96.9807616666667,17.3,24.8,329,984.30,-12.5,86,0.57,0.0,1013.28,360.0
2019-01-24 00:30,50.6304466666667,-96.9807616666667,13.7,22.7,322,984.85,-12.7,87,0.57,0.0,1013.89,360.0
2019-01-24 00:40,50.6304466666667,-96.9807633333333,15.8,25.2,325,985.05,-12.9,87,0.57,0.0,1014.12,360.0
2019-01-24 00:50,50.6304466666667,-96.9807633333333,18.7,31.2,328,985.18,-13.3,85,0.58,0.0,1014.29,360.0
2019-01-24 01:00,50.6304466666667,-96.9807633333333,16.2,25.1,326,985.61,-13.5,83,0.58,0.0,1014.77,360.0
2019-01-24 01:10,50.6304466666667,-96.980765,16.6,25.2,312,985.77,-14.2,83,0.58,0.0,1015.00,360.0
2019-01-24 01:20,50.6304466666667,-96.980765,17.0,25.8,314,986.13,-15.3,83,0.58,0.0,1015.44,360.0
2019-01-24 01:30,50.6304516666667,-96.9807733333333,16.9,27.6,312,986.53,-16.1,82,0.59,0.0,1015.91,360.0
2019-01-24 01:40,50.630455,-96.9807633333333,16.8,27.3,315,986.91,-16.8,81,0.59,0.0,1016.33,360.0
2019-01-24 01:50,50.630455,-96.9807583333333,14.8,22.8,316,987.40,-17.3,81,0.58,0.0,1016.87,360.0
2019-01-24 02:00,50.63045,-96.9807466666667,13.9,21.8,321,987.79,-17.5,81,0.58,0.0,1017.28,12.6
2019-01-24 02:10,50.63045,-96.98076,15.1,22.8,317,987.90,-17.7,80,0.59,0.0,1017.42,12.6
2019-01-24 02:20,50.6304216666667,-96.9807633333333,14.1,21.9,316,988.16,-17.9,80,0.59,0.0,1017.70,12.6
2019-01-24 02:30,50.6304433333333,-96.9807666666667,15.2,25.1,320,988.25,-18.1,80,0.59,0.0,1017.83,12.6
2019-01-24 02:40,50.6304466666667,-96.9807683333333,17.1,27.6,325,988.33,-18.2,79,0.59,0.0,1017.93,12.6
2019-01-24 02:50,50.6304416666667,-96.980775,16.4,24.1,324,988.55,-18.2,79,0.59,0.0,1018.18,12.6
2019-01-24 03:00,50.6304483333333,-96.9807766666667,17.3,25.3,324,988.71,-18.2,79,0.59,0.0,1018.38,305.3
2019-01-24 03:10,50.6304533333333,-96.9807783333333,18.5,27.1,323,988.76,-18.3,78,0.59,0.0,1018.51,305.3
2019-01-24 03:20,50.6304516666667,-96.9807733333333,18.3,27.2,325,988.98,-18.5,77,0.58,0.0,1018.79,305.3
2019-01-24 03:30,50.6304533333333,-96.9807733333333,20.2,29.8,326,989.11,-18.7,77,0.58,0.0,1018.97,305.3
2019-01-24 03:40,50.6304533333333,-96.9807683333333,16.9,27.5,330,989.67,-18.8,76,0.57,0.0,1019.58,305.3
2019-01-24 03:50,50.630455,-96.98077,18.9,28.4,326,989.65,-19.0,75,0.58,0.0,1019.59,305.3
2019-01-24 04:00,50.630455,-96.9807683333333,17.7,27.1,325,989.96,-19.1,75,0.58,0.0,1019.93,38.0
2019-01-24 04:10,50.6304733333333,-96.9807916666667,18.9,25.6,320,989.86,-19.3,74,0.57,0.0,1019.86,38.0
2019-01-24 04:20,50.6304633333333,-96.9807783333333,16.8,24.3,321,990.26,-19.5,73,0.57,0.0,1020.29,38.0
2019-01-24 04:30,50.63042,-96.98077,15.6,22.5,321,990.46,-19.6,73,0.56,0.0,1020.50,38.0
2019-01-24 04:40,50.6304616666667,-96.980775,15.7,22.7,322,990.79,-19.7,73,0.56,0.0,1020.84,38.0
2019-01-24 04:50,50.6304583333333,-96.98077,16.9,24.9,326,991.01,-19.8,72,0.56,0.0,1021.08,38.0
2019-01-24 05:00,50.63043,-96.98077,15.7,25.1,326,991.28,-19.9,71,0.56,0.0,1021.38,188.4
2019-01-24 05:10,50.6304516666667,-96.9807683333333,15.6,24.2,323,991.39,-20.2,71,0.56,0.0,1021.51,188.4
2019-01-24 05:20,50.630455,-96.9807683333333,17.6,27.8,325,991.42,-20.4,70,0.55,0.0,1021.57,188.4
2019-01-24 05:30,50.630455,-96.9807683333333,17.5,25.9,322,991.66,-20.5,70,0.55,0.0,1021.83,188.4
2019-01-24 05:40,50.6304766666667,-96.980765,15.7,25.0,321,991.99,-20.7,69,0.55,0.0,1022.19,188.4
2019-01-24 05:50,50.630465,-96.9807816666667,15.4,25.4,321,992.23,-20.8,69,0.54,0.0,1022.46,188.4
2019-01-24 06:00,50.6304683333333,-96.9807833333333,15.4,24.9,322,992.36,-21.0,69,0.54,0.0,1022.62,345.5
2019-01-24 06:10,50.6304666666667,-96.9807666666667,16.6,25.0,324,992.51,-21.2,68,0.53,0.0,1022.79,345.5
2019-01-24 06:20,50.6304633333333,-96.980765,15.3,22.8,322,992.78,-21.4,67,0.53,0.0,1023.08,345.5
2019-01-24 06:30,50.6304633333333,-96.9807633333333,15.3,27.1,319,992.88,-21.5,67,0.52,0.0,1023.20,345.5
2019-01-24 06:40,50.6304616666667,-96.9807633333333,15.5,25.9,322,993.05,-21.7,67,0.52,0.0,1023.39,345.5
2019-01-24 06:50,50.6304533333333,-96.9807583333333,18.0,26.5,324,992.89,-21.7,66,0.51,0.0,1023.24,345.5
2019-01-24 07:00,50.6304666666667,-96.9807633333333,14.3,19.9,325,993.35,-21.9,66,0.49,0.0,1023.74,360.0
2019-01-24 07:10,50.6304633333333,-96.9807666666667,14.4,21.5,322,993.43,-22.1,66,0.49,0.0,1023.84,360.0
2019-01-24 07:20,50.6304516666667,-96.9807733333333,15.9,23.5,322,993.62,-22.2,66,0.48,0.0,1024.06,360.0
2019-01-24 07:30,50.6304633333333,-96.980765,15.9,24.0,324,993.84,-22.4,66,0.48,0.0,1024.31,360.0
2019-01-24 07:40,50.63046,-96.9807633333333,13.2,21.2,322,994.17,-22.6,67,0.47,0.0,1024.67,360.0
2019-01-24 07:50,50.6304633333333,-96.9807883333333,13.6,21.4,321,994.16,-22.9,68,0.47,0.0,1024.69,360.0
2019-01-24 08:00,50.63044,-96.98076,13.9,21.4,321,994.22,-23.0,68,0.46,0.0,1024.77,360.0
2019-01-24 08:10,50.6304416666667,-96.9807666666667,13.7,20.3,320,994.34,-23.3,68,0.45,0.0,1024.92,360.0
2019-01-24 08:20,50.630445,-96.98077,16.6,26.7,322,994.24,-23.4,68,0.45,0.0,1024.83,360.0
2019-01-24 08:30,50.6304566666667,-96.9807883333333,14.1,21.0,324,994.66,-23.6,67,0.45,0.0,1025.28,360.0
2019-01-24 08:40,50.6304316666667,-96.9807433333333,11.8,16.7,323,995.06,-23.8,68,0.44,0.0,1025.71,360.0
2019-01-24 08:50,50.6304433333333,-96.980755,11.7,18.5,326,995.23,-23.9,68,0.44,0.0,1025.90,360.0
2019-01-24 09:00,50.6304466666667,-96.9807583333333,9.8,17.4,326,995.49,-24.0,68,0.44,0.0,1026.20,143.4
2019-01-24 09:10,50.63045,-96.9807583333333,11.6,18.4,324,995.54,-24.2,68,0.43,0.0,1026.26,143.4
2019-01-24 09:20,50.63045,-96.980765,13.1,20.8,325,995.57,-24.3,67,0.42,0.0,1026.32,143.4
2019-01-24 09:30,50.6304516666667,-96.9807666666667,11.6,18.0,326,995.78,-24.5,66,0.42,0.0,1026.56,143.4
2019-01-24 09:40,50.630445,-96.980765,9.1,15.1,318,995.93,-24.7,68,0.42,0.0,1026.74,143.4
2019-01-24 09:50,50.6304466666667,-96.9807816666667,11.8,17.8,321,995.94,-25.0,68,0.41,0.0,1026.78,143.4
2019-01-24 10:00,50.6304466666667,-96.980775,12.5,18.7,318,996.03,-25.2,67,0.41,0.0,1026.90,360.0
2019-01-24 10:10,50.63045,-96.9807683333333,10.0,17.2,319,996.35,-25.4,68,0.41,0.0,1027.25,360.0
2019-01-24 10:20,50.6304466666667,-96.9807783333333,9.6,15.2,318,996.58,-25.6,68,0.40,0.0,1027.51,360.0
2019-01-24 10:30,50.6304466666667,-96.9807733333333,12.1,16.7,317,996.58,-25.8,69,0.40,0.0,1027.53,360.0
2019-01-24 10:40,50.63045,-96.9807716666667,13.0,20.3,321,996.69,-25.9,68,0.39,0.0,1027.66,360.0
2019-01-24 10:50,50.63045,-96.9807733333333,11.1,18.5,314,996.93,-26.0,68,0.38,0.0,1027.93,360.0
2019-01-24 11:00,50.6304516666667,-96.9807716666667,11.2,17.2,319,997.11,-26.1,68,0.38,0.0,1028.13,323.4
2019-01-24 11:10,50.6304816666667,-96.9807883333333,11.7,17.7,321,997.20,-26.2,68,0.37,0.0,1028.24,323.4
2019-01-24 11:20,50.63046,-96.9807733333333,10.6,15.7,322,997.38,-26.4,68,0.37,0.0,1028.44,323.4
2019-01-24 11:30,50.6304583333333,-96.98077,9.0,13.5,316,997.61,-26.5,69,0.37,0.0,1028.69,323.4
2019-01-24 11:40,50.6304566666667,-96.9807683333333,8.0,13.1,309,997.85,-26.6,68,0.36,0.0,1028.97,323.4
2019-01-24 11:50,50.6304566666667,-96.9807666666667,9.3,15.7,320,997.89,-26.7,68,0.36,0.0,1029.04,323.4
2019-01-24 12:00,50.6304566666667,-96.9807666666667,9.9,15.2,317,997.89,-26.9,68,0.35,0.0,1029.06,311.7
2019-01-24 12:10,50.6304566666667,-96.980765,8.1,12.8,312,998.10,-27.0,69,0.35,0.0,1029.29,311.7
2019-01-24 12:20,50.6304566666667,-96.9807666666667,7.9,12.0,308,998.12,-27.1,70,0.34,0.0,1029.33,311.7
2019-01-24 12:30,50.630455,-96.98076,8.9,12.4,307,998.10,-27.2,69,0.34,0.0,1029.33,311.7
2019-01-24 12:40,50.6304433333333,-96.9807533333333,8.6,12.8,313,998.12,-27.2,69,0.33,0.0,1029.36,311.7
2019-01-24 12:50,50.6304516666667,-96.980755,8.4,13.0,316,998.28,-27.3,70,0.33,0.0,1029.53,311.7
2019-01-24 13:00,50.6304533333333,-96.9807566666667,8.2,11.1,314,998.30,-27.4,70,0.33,0.0,1029.57,60.8
2019-01-24 13:10,50.630455,-96.980765,7.8,13.3,314,998.44,-27.4,70,0.32,0.0,1029.71,60.8
2019-01-24 13:20,50.630455,-96.9807666666667,7.7,10.6,309,998.53,-27.5,70,0.32,0.0,1029.82,60.8
2019-01-24 13:30,50.630455,-96.980765,7.1,10.5,307,998.59,-27.6,70,0.31,0.0,1029.90,60.8
2019-01-24 13:40,50.6304566666667,-96.9807666666667,7.2,10.4,304,998.55,-27.7,70,0.31,0.0,1029.87,60.8
2019-01-24 13:50,50.6304183333333,-96.9807666666667,6.6,9.4,302,998.72,-27.8,70,0.30,0.0,1030.06,60.8
2019-01-24 14:00,50.6304466666667,-96.98077,6.3,9.0,302,998.81,-27.9,70,0.30,0.0,1030.17,167.4
2019-01-24 14:10,50.6304533333333,-96.9807716666667,6.6,9.6,304,998.86,-27.9,70,0.30,0.0,1030.23,167.4
2019-01-24 14:20,50.6304533333333,-96.98077,6.3,9.7,303,998.86,-28.0,69,0.29,0.0,1030.25,167.4
2019-01-24 14:30,50.6304516666667,-96.98077,5.8,8.9,298,998.88,-28.0,69,0.29,0.0,1030.27,167.4
2019-01-24 14:40,50.630455,-96.9807633333333,4.5,6.6,296,998.90,-28.0,68,0.29,0.0,1030.29,167.4
2019-01-24 14:50,50.6304566666667,-96.98077,3.9,7.0,287,999.02,-28.0,67,0.29,0.0,1030.42,167.4
2019-01-24 15:00,50.6304566666667,-96.980775,4.6,7.0,288,999.13,-27.9,67,0.29,0.0,1030.53,270.0
2019-01-24 15:10,50.6304583333333,-96.9807816666667,4.5,7.3,289,999.21,-27.7,66,0.28,0.0,1030.60,270.0
2019-01-24 15:20,50.6304683333333,-96.9807783333333,5.0,8.8,293,999.19,-27.6,66,0.27,0.0,1030.58,270.0
2019-01-24 15:30,50.6304616666667,-96.9807633333333,3.9,6.5,295,999.23,-27.4,65,0.27,0.0,1030.62,270.0
2019-01-24 15:40,50.6304566666667,-96.9807583333333,5.4,9.2,295,999.15,-27.3,64,0.26,0.0,1030.53,270.0
2019-01-24 15:50,50.630455,-96.9807616666667,5.5,8.5,299,999.12,-27.0,64,0.26,0.0,1030.50,270.0
2019-01-24 16:00,50.6304533333333,-96.980765,7.0,10.6,290,999.02,-27.0,64,0.26,0.0,1030.39,270.0
2019-01-24 16:10,50.6304516666667,-96.980765,6.9,11.4,295,999.07,-26.8,63,0.26,0.0,1030.44,270.0
2019-01-24 16:20,50.63045,-96.9807633333333,7.3,12.8,293,999.08,-26.6,63,0.26,0.0,1030.44,270.0
2019-01-24 16:30,50.63045,-96.9807633333333,8.6,12.6,291,998.99,-26.5,62,0.26,0.0,1030.33,270.0
2019-01-24 16:40,50.6304483333333,-96.980765,8.1,12.1,294,999.01,-26.4,62,0.26,0.0,1030.35,270.0
2019-01-24 16:50,50.6304483333333,-96.980765,7.4,10.5,293,999.06,-26.3,61,0.26,0.0,1030.38,270.0
2019-01-24 17:00,50.6304433333333,-96.9807716666667,6.7,9.4,291,999.06,-26.1,60,0.26,0.0,1030.37,192.6
2019-01-24 17:10,50.630445,-96.9807683333333,6.9,10.4,291,999.03,-25.9,59,0.25,0.0,1030.31,192.6
2019-01-24 17:20,50.630445,-96.980765,5.9,10.0,290,999.02,-25.6,58,0.25,0.0,1030.27,192.6
2019-01-24 17:30,50.6304466666667,-96.9807666666667,6.3,9.4,291,998.81,-25.6,57,0.25,0.0,1030.04,192.6
2019-01-24 17:40,50.6304483333333,-96.9807666666667,5.2,7.8,290,998.70,-25.4,56,0.25,0.0,1029.90,192.6
2019-01-24 17:50,50.63045,-96.9807683333333,5.3,8.9,300,998.53,-24.9,55,0.25,0.0,1029.69,192.6
2019-01-24 18:00,50.6304483333333,-96.9807683333333,5.9,9.4,298,998.39,-24.8,55,0.24,0.0,1029.52,131.7
2019-01-24 18:10,50.6304466666667,-96.9807783333333,6.9,10.2,295,998.15,-24.7,56,0.24,0.0,1029.27,131.7
2019-01-24 18:20,50.6304483333333,-96.9807766666667,7.2,12.5,295,997.93,-24.7,56,0.24,0.0,1029.03,131.7
2019-01-24 18:30,50.6304533333333,-96.980765,7.5,11.6,298,997.76,-24.5,55,0.23,0.0,1028.83,131.7
2019-01-24 18:40,50.6304516666667,-96.980765,5.1,7.9,287,997.80,-24.2,54,0.23,0.0,1028.85,131.7
2019-01-24 18:50,50.6304483333333,-96.98077,8.1,12.6,292,997.50,-24.1,53,0.23,0.0,1028.52,131.7
2019-01-24 19:00,50.6304483333333,-96.9807716666667,10.7,15.4,296,997.29,-24.1,52,0.23,0.0,1028.30,228.3
2019-01-24 19:10,50.63045,-96.9807716666667,8.6,13.3,298,997.23,-24.0,53,0.24,0.0,1028.21,228.3
2019-01-24 19:20,50.63045,-96.9807733333333,8.2,13.1,310,997.04,-23.9,53,0.23,0.0,1028.00,228.3
2019-01-24 19:30,50.630455,-96.98078,7.1,11.2,315,996.98,-23.8,53,0.23,0.0,1027.93,228.3
2019-01-24 19:40,50.6304533333333,-96.9807733333333,7.7,12.0,303,996.76,-23.7,52,0.23,0.0,1027.66,228.3
2019-01-24 19:50,50.6304516666667,-96.9807733333333,6.7,10.3,304,996.69,-23.6,53,0.23,0.0,1027.57,228.3
2019-01-24 20:00,50.6304483333333,-96.9807766666667,5.6,8.0,306,996.64,-23.5,52,0.23,0.0,1027.51,360.0
2019-01-24 20:10,50.6304483333333,-96.9807783333333,5.5,9.3,301,996.62,-23.5,52,0.24,0.0,1027.48,360.0
2019-01-24 20:20,50.6304483333333,-96.98078,4.8,8.6,303,996.50,-23.4,52,0.24,0.0,1027.35,360.0
2019-01-24 20:30,50.6304483333333,-96.98078,5.3,8.7,292,996.35,-23.2,52,0.24,0.0,1027.16,360.0
2019-01-24 20:40,50.63045,-96.98078,5.6,8.6,307,996.21,-23.0,51,0.24,0.0,1026.99,360.0
2019-01-24 20:50,50.63045,-96.9807783333333,5.2,7.5,308,996.05,-22.9,51,0.25,0.0,1026.82,360.0
2019-01-24 21:00,50.6304483333333,-96.9807766666667,4.4,6.5,300,995.96,-22.8,51,0.25,0.0,1026.72,270.0
2019-01-24 21:10,50.6304483333333,-96.9807816666667,5.2,8.4,297,995.85,-22.7,51,0.25,0.0,1026.60,270.0
2019-01-24 21:20,50.6304266666667,-96.9807816666667,6.4,9.1,273,995.76,-22.9,50,0.26,0.0,1026.51,270.0
2019-01-24 21:30,50.6304333333333,-96.9807633333333,5.7,8.8,272,995.71,-22.9,50,0.26,0.0,1026.46,270.0
2019-01-24 21:40,50.6304383333333,-96.9807666666667,5.3,8.3,266,995.84,-23.0,51,0.26,0.0,1026.58,270.0
2019-01-24 21:50,50.6304566666667,-96.9807633333333,4.1,8.5,277,995.81,-22.9,51,0.26,0.0,1026.54,270.0
2019-01-24 22:00,50.630445,-96.9807666666667,4.1,6.5,298,995.65,-22.8,51,0.26,0.0,1026.37,167.4
2019-01-24 22:10,50.6304416666667,-96.9807716666667,3.7,6.9,296,995.54,-22.8,51,0.27,0.0,1026.25,167.4
2019-01-24 22:20,50.63044,-96.9807716666667,3.8,6.1,302,995.41,-22.9,51,0.27,0.0,1026.11,167.4
2019-01-24 22:30,50.6304433333333,-96.98077,3.2,4.8,276,995.29,-23.1,50,0.27,0.0,1025.99,167.4
2019-01-24 22:40,50.6304433333333,-96.9807683333333,4.0,5.8,277,995.26,-23.1,51,0.28,0.0,1025.95,167.4
2019-01-24 22:50,50.6304433333333,-96.98077,3.2,5.2,290,995.22,-23.4,52,0.28,0.0,1025.91,167.4
2019-01-24 23:00,50.630445,-96.98077,1.7,3.1,290,995.16,-23.8,54,0.27,0.0,1025.88,167.4
2019-01-24 23:10,50.630445,-96.98077,2.1,4.9,104,995.09,-23.9,57,0.28,0.0,1025.83,167.4
2019-01-24 23:20,50.630445,-96.9807716666667,4.6,5.7,98,995.04,-24.6,63,0.28,0.0,1025.81,167.4
2019-01-24 23:30,50.630435,-96.980765,4.6,5.4,115,994.92,-25.0,66,0.29,0.0,1025.73,167.4
2019-01-24 23:40,50.6304366666667,-96.9807666666667,4.6,5.6,121,994.62,-25.3,67,0.29,0.0,1025.42,167.4
